Time,TemperatureF,DewpointF,PressureIn,WindDirection,WindDirectionDegrees,WindSpeedMPH,WindSpeedGustMPH,Humidity,HourlyPrecipIn,Conditions,Clouds,dailyrainin,SoftwareType,DateUTC
2013-07-05 00:04:00,66.1,62.2,30.00,North,-999,-999.0,-999.0,87,0.00,,,0.00,tws,2013-07-05 04:04:00,
2013-07-05 00:09:00,66.1,62.1,30.00,North,-999,-999.0,-999.0,86,0.00,,,0.00,tws,2013-07-05 04:09:00,
2013-07-05 00:14:00,66.1,62.2,30.00,North,-999,-999.0,-999.0,87,0.12,,,0.01,tws,2013-07-05 04:14:00,
2013-07-05 00:19:00,66.1,62.2,30.00,North,-999,-999.0,-999.0,87,0.00,,,0.01,tws,2013-07-05 04:19:00,
2013-07-05 00:24:00,66.1,62.2,30.00,North,-999,-999.0,-999.0,86,0.00,,,0.01,tws,2013-07-05 04:24:00,
2013-07-05 00:29:00,66.2,62.2,30.00,North,-999,-999.0,-999.0,87,0.00,,,0.01,tws,2013-07-05 04:29:00,
2013-07-05 00:34:00,66.2,62.2,30.00,North,-999,-999.0,-999.0,86,0.00,,,0.01,tws,2013-07-05 04:34:00,
2013-07-05 00:39:00,66.1,62.2,30.00,North,-999,-999.0,-999.0,86,0.12,,,0.02,tws,2013-07-05 04:39:00,
2013-07-05 00:44:00,66.2,62.3,30.00,North,-999,-999.0,-999.0,87,0.00,,,0.02,tws,2013-07-05 04:44:00,
2013-07-05 00:49:00,66.2,62.2,30.00,North,-999,-999.0,-999.0,86,0.00,,,0.02,tws,2013-07-05 04:49:00,
2013-07-05 00:54:00,66.2,62.3,30.00,North,-999,-999.0,-999.0,86,0.00,,,0.02,tws,2013-07-05 04:54:00,
2013-07-05 00:59:00,66.3,62.3,30.00,North,-999,-999.0,-999.0,86,0.00,,,0.02,tws,2013-07-05 04:59:00,
2013-07-05 01:04:00,66.3,62.3,30.00,North,-999,-999.0,-999.0,86,0.12,,,0.03,tws,2013-07-05 05:04:00,
2013-07-05 01:09:00,66.3,62.3,30.00,North,-999,-999.0,-999.0,86,0.00,,,0.03,tws,2013-07-05 05:09:00,
2013-07-05 01:14:00,66.3,62.3,30.00,North,-999,-999.0,-999.0,86,0.00,,,0.03,tws,2013-07-05 05:14:00,
2013-07-05 01:19:00,66.3,62.2,30.00,North,-999,-999.0,-999.0,86,0.00,,,0.03,tws,2013-07-05 05:19:00,
2013-07-05 01:24:00,66.2,62.2,30.00,North,-999,-999.0,-999.0,86,0.00,,,0.03,tws,2013-07-05 05:24:00,
2013-07-05 01:29:00,66.2,62.2,30.00,North,-999,-999.0,-999.0,86,0.12,,,0.04,tws,2013-07-05 05:29:00,
2013-07-05 01:34:00,66.2,62.2,30.00,North,-999,-999.0,-999.0,86,0.00,,,0.04,tws,2013-07-05 05:34:00,
2013-07-05 01:39:00,66.2,62.2,30.00,North,-999,-999.0,-999.0,86,0.00,,,0.04,tws,2013-07-05 05:39:00,
2013-07-05 01:44:00,66.2,62.2,29.99,North,-999,-999.0,-999.0,86,0.00,,,0.04,tws,2013-07-05 05:44:00,
2013-07-05 01:49:00,66.2,62.2,29.99,North,-999,-999.0,-999.0,86,0.00,,,0.04,tws,2013-07-05 05:49:00,
2013-07-05 01:54:00,66.1,62.1,29.99,North,-999,-999.0,-999.0,86,0.12,,,0.05,tws,2013-07-05 05:54:00,
2013-07-05 01:59:00,66.0,62.1,30.00,North,-999,-999.0,-999.0,86,0.00,,,0.05,tws,2013-07-05 05:59:00,
2013-07-05 02:04:00,66.0,62.0,30.00,North,-999,-999.0,-999.0,86,0.00,,,0.05,tws,2013-07-05 06:04:00,
2013-07-05 02:09:00,66.0,62.0,30.00,North,-999,-999.0,-999.0,86,0.00,,,0.05,tws,2013-07-05 06:09:00,
2013-07-05 02:14:00,66.0,62.0,30.00,North,-999,-999.0,-999.0,86,0.00,,,0.05,tws,2013-07-05 06:14:00,
2013-07-05 02:19:00,66.0,61.9,30.00,North,-999,-999.0,-999.0,86,0.12,,,0.06,tws,2013-07-05 06:19:00,
2013-07-05 02:24:00,66.0,61.9,30.00,North,-999,-999.0,-999.0,86,0.00,,,0.06,tws,2013-07-05 06:24:00,
2013-07-05 02:29:00,66.0,61.9,29.99,North,-999,-999.0,-999.0,86,0.00,,,0.06,tws,2013-07-05 06:29:00,
2013-07-05 02:34:00,66.0,62.0,29.99,North,-999,-999.0,-999.0,86,0.00,,,0.06,tws,2013-07-05 06:34:00,
2013-07-05 02:39:00,66.1,62.1,30.00,North,-999,-999.0,-999.0,86,0.00,,,0.06,tws,2013-07-05 06:39:00,
2013-07-05 02:44:00,66.0,62.0,29.99,North,-999,-999.0,-999.0,86,0.12,,,0.07,tws,2013-07-05 06:44:00,
2013-07-05 02:49:00,66.0,61.9,29.99,North,-999,-999.0,-999.0,86,0.00,,,0.07,tws,2013-07-05 06:49:00,
2013-07-05 02:54:00,66.0,62.0,29.99,North,-999,-999.0,-999.0,86,0.00,,,0.07,tws,2013-07-05 06:54:00,
2013-07-05 02:59:00,66.0,61.9,29.99,North,-999,-999.0,-999.0,86,0.00,,,0.07,tws,2013-07-05 06:59:00,
2013-07-05 03:04:00,66.0,61.9,29.99,North,-999,-999.0,-999.0,86,0.00,,,0.07,tws,2013-07-05 07:04:00,
2013-07-05 03:10:00,66.0,62.0,29.99,North,-999,-999.0,-999.0,86,0.12,,,0.08,tws,2013-07-05 07:10:00,
2013-07-05 03:19:00,66.0,62.0,29.99,North,-999,-999.0,-999.0,86,0.00,,,0.08,tws,2013-07-05 07:19:00,
2013-07-05 03:24:00,65.9,61.8,29.99,North,-999,-999.0,-999.0,86,0.00,,,0.08,tws,2013-07-05 07:24:00,
2013-07-05 03:29:00,65.9,61.8,29.99,North,-999,-999.0,-999.0,86,0.00,,,0.08,tws,2013-07-05 07:29:00,
2013-07-05 03:34:00,65.9,61.8,29.99,North,-999,-999.0,-999.0,86,0.12,,,0.09,tws,2013-07-05 07:34:00,
2013-07-05 03:39:00,65.9,61.8,29.99,North,-999,-999.0,-999.0,86,0.00,,,0.09,tws,2013-07-05 07:39:00,
2013-07-05 03:44:00,65.9,61.8,29.99,North,-999,-999.0,-999.0,86,0.00,,,0.09,tws,2013-07-05 07:44:00,
2013-07-05 03:49:00,65.9,61.8,29.99,North,-999,-999.0,-999.0,86,0.00,,,0.09,tws,2013-07-05 07:49:00,
2013-07-05 03:54:00,65.9,61.8,29.99,North,-999,-999.0,-999.0,86,0.00,,,0.09,tws,2013-07-05 07:54:00,
2013-07-05 03:59:00,65.8,61.7,29.99,North,-999,-999.0,-999.0,86,0.00,,,0.09,tws,2013-07-05 07:59:00,
2013-07-05 04:04:00,65.8,61.7,29.99,North,-999,-999.0,-999.0,86,0.12,,,0.10,tws,2013-07-05 08:04:00,
2013-07-05 04:09:00,65.8,61.6,29.99,North,-999,-999.0,-999.0,86,0.00,,,0.10,tws,2013-07-05 08:09:00,
2013-07-05 04:14:00,65.8,61.6,29.99,North,-999,-999.0,-999.0,86,0.00,,,0.10,tws,2013-07-05 08:14:00,
2013-07-05 04:19:00,65.8,61.7,29.99,North,-999,-999.0,-999.0,86,0.00,,,0.10,tws,2013-07-05 08:19:00,
2013-07-05 04:24:00,65.8,61.7,29.99,North,-999,-999.0,-999.0,86,0.00,,,0.10,tws,2013-07-05 08:24:00,
2013-07-05 04:29:00,65.8,61.7,29.99,North,-999,-999.0,-999.0,86,0.12,,,0.11,tws,2013-07-05 08:29:00,
2013-07-05 04:34:00,65.8,61.6,29.99,North,-999,-999.0,-999.0,86,0.00,,,0.11,tws,2013-07-05 08:34:00,
2013-07-05 04:39:00,65.8,61.7,29.99,North,-999,-999.0,-999.0,86,0.00,,,0.11,tws,2013-07-05 08:39:00,
2013-07-05 04:44:00,65.8,61.6,29.99,North,-999,-999.0,-999.0,86,0.00,,,0.11,tws,2013-07-05 08:44:00,
2013-07-05 04:49:00,65.8,61.6,29.98,North,-999,-999.0,-999.0,86,0.00,,,0.11,tws,2013-07-05 08:49:00,
2013-07-05 04:55:00,65.8,61.6,29.98,North,-999,-999.0,-999.0,86,0.12,,,0.12,tws,2013-07-05 08:55:00,
2013-07-05 05:04:00,65.8,61.6,29.98,North,-999,-999.0,-999.0,86,0.00,,,0.12,tws,2013-07-05 09:04:00,
2013-07-05 05:10:00,65.8,61.6,29.98,North,-999,-999.0,-999.0,86,0.00,,,0.12,tws,2013-07-05 09:10:00,
2013-07-05 05:19:00,65.8,61.6,29.98,North,-999,-999.0,-999.0,86,0.00,,,0.12,tws,2013-07-05 09:19:00,
2013-07-05 05:24:00,65.8,61.6,29.98,North,-999,-999.0,-999.0,86,0.12,,,0.13,tws,2013-07-05 09:24:00,
2013-07-05 05:29:00,65.8,61.6,29.98,North,-999,-999.0,-999.0,86,0.00,,,0.13,tws,2013-07-05 09:29:00,
2013-07-05 05:34:00,65.8,61.6,29.99,North,-999,-999.0,-999.0,86,0.00,,,0.13,tws,2013-07-05 09:34:00,
2013-07-05 05:39:00,65.8,61.6,29.99,North,-999,-999.0,-999.0,86,0.00,,,0.13,tws,2013-07-05 09:39:00,
2013-07-05 05:44:00,65.7,61.6,29.98,North,-999,-999.0,-999.0,86,0.00,,,0.13,tws,2013-07-05 09:44:00,
2013-07-05 05:49:00,65.8,61.6,29.99,North,-999,-999.0,-999.0,86,0.00,,,0.13,tws,2013-07-05 09:49:00,
2013-07-05 05:54:00,65.8,0.0,29.99,North,-999,-999.0,-999.0,-130,0.12,,,0.14,tws,2013-07-05 09:54:00,
2013-07-05 05:59:00,65.7,61.5,29.99,North,-999,-999.0,-999.0,86,0.00,,,0.14,tws,2013-07-05 09:59:00,
2013-07-05 06:04:00,65.8,61.5,29.99,North,-999,-999.0,-999.0,86,0.00,,,0.14,tws,2013-07-05 10:04:00,
2013-07-05 06:09:00,65.7,61.5,29.99,North,-999,-999.0,-999.0,86,0.00,,,0.14,tws,2013-07-05 10:09:00,
2013-07-05 06:15:00,65.7,61.5,29.99,North,-999,-999.0,-999.0,86,0.00,,,0.14,tws,2013-07-05 10:15:00,
2013-07-05 06:20:00,65.6,61.5,29.99,North,-999,-999.0,-999.0,86,0.12,,,0.15,tws,2013-07-05 10:20:00,
2013-07-05 06:29:00,65.6,61.5,29.99,North,-999,-999.0,-999.0,86,0.00,,,0.15,tws,2013-07-05 10:29:00,
2013-07-05 06:34:00,65.7,61.5,30.00,North,-999,-999.0,-999.0,86,0.00,,,0.15,tws,2013-07-05 10:34:00,
2013-07-05 06:39:00,65.7,61.5,30.00,North,-999,-999.0,-999.0,86,0.00,,,0.15,tws,2013-07-05 10:39:00,
2013-07-05 06:44:00,65.8,61.5,30.00,North,-999,-999.0,-999.0,86,0.00,,,0.15,tws,2013-07-05 10:44:00,
2013-07-05 06:49:00,65.7,61.5,30.00,North,-999,-999.0,-999.0,86,0.12,,,0.16,tws,2013-07-05 10:49:00,
2013-07-05 06:54:00,65.7,61.5,30.00,North,-999,-999.0,-999.0,86,0.00,,,0.16,tws,2013-07-05 10:54:00,
2013-07-05 06:59:00,65.7,61.4,30.00,North,-999,-999.0,-999.0,86,0.00,,,0.16,tws,2013-07-05 10:59:00,
2013-07-05 07:04:00,65.7,61.4,30.00,North,-999,-999.0,-999.0,85,0.00,,,0.16,tws,2013-07-05 11:04:00,
2013-07-05 07:09:00,65.8,61.5,30.00,North,-999,-999.0,-999.0,85,0.00,,,0.16,tws,2013-07-05 11:09:00,
2013-07-05 07:14:00,65.8,61.5,30.00,North,-999,-999.0,-999.0,85,0.00,,,0.16,tws,2013-07-05 11:14:00,
2013-07-05 07:19:00,65.8,61.5,30.01,North,-999,-999.0,-999.0,85,0.12,,,0.17,tws,2013-07-05 11:19:00,
2013-07-05 07:25:00,65.8,61.5,30.01,North,-999,-999.0,-999.0,85,0.00,,,0.17,tws,2013-07-05 11:25:00,
2013-07-05 07:35:00,65.9,61.5,30.02,North,-999,-999.0,-999.0,85,0.00,,,0.17,tws,2013-07-05 11:35:00,
2013-07-05 07:44:00,66.0,61.7,30.02,North,-999,-999.0,-999.0,85,0.00,,,0.17,tws,2013-07-05 11:44:00,
2013-07-05 07:49:00,66.1,61.7,30.02,North,-999,-999.0,-999.0,85,0.00,,,0.17,tws,2013-07-05 11:49:00,
2013-07-05 07:54:00,66.2,61.8,30.02,North,-999,-999.0,-999.0,85,0.12,,,0.18,tws,2013-07-05 11:54:00,
2013-07-05 08:00:00,66.4,62.0,30.02,North,-999,-999.0,-999.0,85,0.00,,,0.18,tws,2013-07-05 12:00:00,
2013-07-05 08:05:00,66.5,62.0,30.02,North,-999,-999.0,-999.0,85,0.00,,,0.18,tws,2013-07-05 12:05:00,
2013-07-05 08:15:00,66.5,62.1,30.02,North,-999,-999.0,-999.0,85,0.00,,,0.18,tws,2013-07-05 12:15:00,
2013-07-05 08:25:00,66.8,62.3,30.02,North,-999,-999.0,-999.0,85,0.12,,,0.19,tws,2013-07-05 12:25:00,
2013-07-05 08:34:00,67.0,62.5,30.02,North,-999,-999.0,-999.0,85,0.00,,,0.19,tws,2013-07-05 12:34:00,
2013-07-05 08:39:00,66.9,62.3,30.02,North,-999,-999.0,-999.0,85,0.00,,,0.19,tws,2013-07-05 12:39:00,
2013-07-05 08:44:00,66.9,62.3,30.03,North,-999,-999.0,-999.0,85,0.00,,,0.19,tws,2013-07-05 12:44:00,
2013-07-05 08:49:00,67.1,62.4,30.03,North,-999,-999.0,-999.0,84,0.00,,,0.19,tws,2013-07-05 12:49:00,
2013-07-05 08:55:00,67.1,62.4,30.03,North,-999,-999.0,-999.0,84,0.12,,,0.20,tws,2013-07-05 12:55:00,
2013-07-05 09:04:00,67.1,62.5,30.03,North,-999,-999.0,-999.0,85,0.00,,,0.20,tws,2013-07-05 13:04:00,
2013-07-05 09:09:00,66.9,62.4,30.04,North,-999,-999.0,-999.0,85,0.00,,,0.20,tws,2013-07-05 13:09:00,
2013-07-05 09:14:00,66.9,62.3,30.04,North,-999,-999.0,-999.0,85,0.00,,,0.20,tws,2013-07-05 13:14:00,
2013-07-05 09:20:00,66.8,62.3,30.04,North,-999,-999.0,-999.0,85,0.00,,,0.20,tws,2013-07-05 13:20:00,
2013-07-05 09:29:00,66.9,62.2,30.04,North,-999,-999.0,-999.0,84,0.00,,,0.21,tws,2013-07-05 13:29:00,
2013-07-05 09:34:00,67.1,62.4,30.04,North,-999,-999.0,-999.0,84,0.00,,,0.21,tws,2013-07-05 13:34:00,
2013-07-05 09:40:00,67.2,62.5,30.04,North,-999,-999.0,-999.0,84,0.00,,,0.21,tws,2013-07-05 13:40:00,
2013-07-05 09:49:00,67.3,62.6,30.04,North,-999,-999.0,-999.0,84,0.00,,,0.21,tws,2013-07-05 13:49:00,
2013-07-05 09:55:00,67.3,62.6,30.04,North,-999,-999.0,-999.0,84,0.00,,,0.21,tws,2013-07-05 13:55:00,
2013-07-05 10:04:00,67.7,62.9,30.04,North,-999,-999.0,-999.0,84,0.00,,,0.22,tws,2013-07-05 14:04:00,
2013-07-05 10:10:00,67.9,63.1,30.04,North,-999,-999.0,-999.0,84,0.00,,,0.22,tws,2013-07-05 14:10:00,
2013-07-05 10:14:00,68.1,63.3,30.04,North,-999,-999.0,-999.0,84,0.00,,,0.22,tws,2013-07-05 14:14:00,
2013-07-05 10:19:00,68.1,63.3,30.04,North,-999,-999.0,-999.0,84,0.00,,,0.22,tws,2013-07-05 14:19:00,
2013-07-05 10:24:00,68.2,63.3,30.04,North,-999,-999.0,-999.0,84,0.00,,,0.22,tws,2013-07-05 14:24:00,
2013-07-05 10:29:00,68.2,63.4,30.04,North,-999,-999.0,-999.0,84,0.12,,,0.23,tws,2013-07-05 14:29:00,
2013-07-05 10:34:00,68.1,63.4,30.04,North,-999,-999.0,-999.0,84,0.00,,,0.23,tws,2013-07-05 14:34:00,
2013-07-05 10:40:00,68.3,63.4,30.04,North,-999,-999.0,-999.0,84,0.00,,,0.23,tws,2013-07-05 14:40:00,
2013-07-05 10:44:00,68.4,63.6,30.04,North,-999,-999.0,-999.0,84,0.00,,,0.23,tws,2013-07-05 14:44:00,
2013-07-05 10:49:00,68.5,63.6,30.05,North,-999,-999.0,-999.0,84,0.00,,,0.23,tws,2013-07-05 14:49:00,
2013-07-05 10:54:00,68.5,63.7,30.04,North,-999,-999.0,-999.0,84,0.00,,,0.23,tws,2013-07-05 14:54:00,
2013-07-05 11:00:00,68.3,64.0,30.05,North,-999,-999.0,-999.0,85,0.00,,,0.23,tws,2013-07-05 15:00:00,
2013-07-05 11:10:00,68.9,64.0,30.05,North,-999,-999.0,-999.0,84,0.00,,,0.24,tws,2013-07-05 15:10:00,
2013-07-05 11:19:00,69.5,64.6,30.04,North,-999,-999.0,-999.0,84,0.00,,,0.24,tws,2013-07-05 15:19:00,
2013-07-05 11:25:00,70.0,64.8,30.04,North,-999,-999.0,-999.0,83,0.00,,,0.24,tws,2013-07-05 15:25:00,
2013-07-05 11:29:00,70.4,65.1,30.05,North,-999,-999.0,-999.0,83,0.00,,,0.24,tws,2013-07-05 15:29:00,
2013-07-05 11:35:00,70.6,65.4,30.05,North,-999,-999.0,-999.0,83,0.12,,,0.25,tws,2013-07-05 15:35:00,
2013-07-05 11:44:00,70.4,65.7,30.05,North,-999,-999.0,-999.0,84,0.00,,,0.25,tws,2013-07-05 15:44:00,
2013-07-05 11:50:00,70.2,65.5,30.05,North,-999,-999.0,-999.0,84,0.00,,,0.25,tws,2013-07-05 15:50:00,
2013-07-05 11:54:00,70.3,65.5,30.05,North,-999,-999.0,-999.0,84,0.00,,,0.25,tws,2013-07-05 15:54:00,
2013-07-05 11:59:00,70.7,65.8,30.04,North,-999,-999.0,-999.0,84,0.12,,,0.26,tws,2013-07-05 15:59:00,
2013-07-05 12:05:00,71.2,66.1,30.04,North,-999,-999.0,-999.0,83,0.00,,,0.26,tws,2013-07-05 16:05:00,
2013-07-05 12:14:00,71.6,66.8,30.05,North,-999,-999.0,-999.0,84,0.00,,,0.26,tws,2013-07-05 16:14:00,
2013-07-05 12:19:00,71.5,66.9,30.05,North,-999,-999.0,-999.0,85,0.00,,,0.26,tws,2013-07-05 16:19:00,
2013-07-05 12:24:00,71.5,67.0,30.05,North,-999,-999.0,-999.0,85,0.12,,,0.27,tws,2013-07-05 16:24:00,
2013-07-05 12:30:00,71.4,67.1,30.05,North,-999,-999.0,-999.0,86,0.00,,,0.27,tws,2013-07-05 16:30:00,
2013-07-05 12:34:00,71.4,67.4,30.05,North,-999,-999.0,-999.0,87,0.00,,,0.27,tws,2013-07-05 16:34:00,
2013-07-05 12:39:00,71.3,67.6,30.05,North,-999,-999.0,-999.0,87,0.00,,,0.27,tws,2013-07-05 16:39:00,
2013-07-05 12:45:00,71.4,68.5,30.05,North,-999,-999.0,-999.0,90,0.00,,,0.27,tws,2013-07-05 16:45:00,
2013-07-05 12:49:00,71.6,68.6,30.04,North,-999,-999.0,-999.0,90,0.00,,,0.27,tws,2013-07-05 16:49:00,
2013-07-05 12:54:00,71.8,68.7,30.04,North,-999,-999.0,-999.0,89,0.12,,,0.28,tws,2013-07-05 16:54:00,
2013-07-05 13:00:00,71.9,68.6,30.04,North,-999,-999.0,-999.0,89,0.00,,,0.28,tws,2013-07-05 17:00:00,
2013-07-05 13:04:00,71.7,68.8,30.04,North,-999,-999.0,-999.0,90,0.00,,,0.28,tws,2013-07-05 17:04:00,
2013-07-05 13:10:00,71.7,68.7,30.04,North,-999,-999.0,-999.0,90,0.00,,,0.28,tws,2013-07-05 17:10:00,
2013-07-05 13:14:00,71.8,69.0,30.03,North,-999,-999.0,-999.0,90,0.00,,,0.28,tws,2013-07-05 17:14:00,
2013-07-05 13:19:00,71.8,69.4,30.03,North,-999,-999.0,-999.0,91,0.12,,,0.29,tws,2013-07-05 17:19:00,
2013-07-05 13:25:00,71.9,69.2,30.03,North,-999,-999.0,-999.0,91,0.00,,,0.29,tws,2013-07-05 17:25:00,
2013-07-05 13:29:00,72.1,70.1,30.03,North,-999,-999.0,-999.0,93,0.00,,,0.29,tws,2013-07-05 17:29:00,
2013-07-05 13:34:00,72.5,70.6,30.03,North,-999,-999.0,-999.0,93,0.00,,,0.29,tws,2013-07-05 17:34:00,
2013-07-05 13:39:00,72.8,70.9,30.03,North,-999,-999.0,-999.0,93,0.00,,,0.29,tws,2013-07-05 17:39:00,
2013-07-05 13:44:00,72.7,70.9,30.03,North,-999,-999.0,-999.0,94,0.00,,,0.29,tws,2013-07-05 17:44:00,
2013-07-05 13:50:00,72.8,71.0,30.03,North,-999,-999.0,-999.0,93,0.12,,,0.30,tws,2013-07-05 17:50:00,
2013-07-05 13:54:00,72.9,71.0,30.03,North,-999,-999.0,-999.0,93,0.00,,,0.30,tws,2013-07-05 17:54:00,
2013-07-05 13:59:00,73.1,71.2,30.02,North,-999,-999.0,-999.0,93,0.00,,,0.30,tws,2013-07-05 17:59:00,
2013-07-05 14:05:00,73.5,71.7,30.02,North,-999,-999.0,-999.0,93,0.00,,,0.30,tws,2013-07-05 18:05:00,
2013-07-05 14:09:00,74.2,72.5,30.02,North,-999,-999.0,-999.0,94,0.00,,,0.30,tws,2013-07-05 18:09:00,
2013-07-05 14:14:00,74.3,72.5,30.02,North,-999,-999.0,-999.0,94,0.12,,,0.31,tws,2013-07-05 18:14:00,
2013-07-05 14:20:00,74.0,72.1,30.02,North,-999,-999.0,-999.0,93,0.00,,,0.31,tws,2013-07-05 18:20:00,
2013-07-05 14:24:00,73.6,71.8,30.02,North,-999,-999.0,-999.0,93,0.00,,,0.31,tws,2013-07-05 18:24:00,
2013-07-05 14:30:00,73.3,71.3,30.02,North,-999,-999.0,-999.0,93,0.00,,,0.31,tws,2013-07-05 18:30:00,
2013-07-05 14:34:00,73.1,71.5,30.01,North,-999,-999.0,-999.0,94,0.00,,,0.31,tws,2013-07-05 18:34:00,
2013-07-05 14:39:00,73.1,71.5,30.01,North,-999,-999.0,-999.0,94,0.00,,,0.31,tws,2013-07-05 18:39:00,
2013-07-05 14:45:00,73.4,71.6,30.01,North,-999,-999.0,-999.0,94,0.00,,,0.31,tws,2013-07-05 18:45:00,
2013-07-05 14:49:00,73.5,71.8,30.01,North,-999,-999.0,-999.0,94,0.12,,,0.32,tws,2013-07-05 18:49:00,
2013-07-05 14:55:00,73.5,71.6,30.02,North,-999,-999.0,-999.0,93,0.00,,,0.32,tws,2013-07-05 18:55:00,
2013-07-05 15:00:00,73.4,71.6,30.01,North,-999,-999.0,-999.0,94,0.00,,,0.32,tws,2013-07-05 19:00:00,
2013-07-05 15:04:00,73.6,71.7,30.01,North,-999,-999.0,-999.0,93,0.00,,,0.32,tws,2013-07-05 19:04:00,
2013-07-05 15:10:00,73.9,72.1,30.00,North,-999,-999.0,-999.0,94,0.00,,,0.32,tws,2013-07-05 19:10:00,
2013-07-05 15:14:00,74.1,72.4,30.00,North,-999,-999.0,-999.0,94,0.00,,,0.32,tws,2013-07-05 19:14:00,
2013-07-05 15:19:00,74.3,72.5,30.00,North,-999,-999.0,-999.0,94,0.12,,,0.33,tws,2013-07-05 19:19:00,
2013-07-05 15:25:00,74.4,72.6,30.00,North,-999,-999.0,-999.0,94,0.00,,,0.33,tws,2013-07-05 19:25:00,
2013-07-05 15:29:00,74.7,72.8,30.00,North,-999,-999.0,-999.0,93,0.00,,,0.33,tws,2013-07-05 19:29:00,
2013-07-05 15:35:00,74.8,72.7,30.00,North,-999,-999.0,-999.0,93,0.00,,,0.33,tws,2013-07-05 19:35:00,
2013-07-05 15:44:00,75.2,72.9,30.00,North,-999,-999.0,-999.0,92,0.00,,,0.33,tws,2013-07-05 19:44:00,
2013-07-05 15:49:00,75.5,73.0,30.00,North,-999,-999.0,-999.0,91,0.00,,,0.33,tws,2013-07-05 19:49:00,
2013-07-05 15:55:00,75.9,73.3,30.00,North,-999,-999.0,-999.0,91,0.00,,,0.33,tws,2013-07-05 19:55:00,
2013-07-05 15:59:00,76.3,73.6,29.99,North,-999,-999.0,-999.0,91,0.12,,,0.34,tws,2013-07-05 19:59:00,
2013-07-05 16:04:00,76.3,73.0,29.99,North,-999,-999.0,-999.0,89,0.00,,,0.34,tws,2013-07-05 20:04:00,
2013-07-05 16:10:00,76.0,72.2,29.99,North,-999,-999.0,-999.0,87,0.00,,,0.34,tws,2013-07-05 20:10:00,
2013-07-05 16:14:00,75.8,71.9,29.99,North,-999,-999.0,-999.0,87,0.00,,,0.34,tws,2013-07-05 20:14:00,
2013-07-05 16:20:00,76.0,72.3,29.99,North,-999,-999.0,-999.0,88,0.00,,,0.34,tws,2013-07-05 20:20:00,
2013-07-05 16:24:00,76.4,72.4,29.99,North,-999,-999.0,-999.0,87,0.00,,,0.34,tws,2013-07-05 20:24:00,
2013-07-05 16:30:00,76.3,72.4,29.99,North,-999,-999.0,-999.0,87,0.00,,,0.34,tws,2013-07-05 20:30:00,
2013-07-05 16:34:00,76.2,72.5,29.99,North,-999,-999.0,-999.0,88,0.00,,,0.34,tws,2013-07-05 20:34:00,
2013-07-05 16:39:00,76.2,72.2,29.99,North,-999,-999.0,-999.0,87,0.12,,,0.35,tws,2013-07-05 20:39:00,
2013-07-05 16:45:00,76.1,72.1,29.99,North,-999,-999.0,-999.0,87,0.00,,,0.35,tws,2013-07-05 20:45:00,
2013-07-05 16:49:00,75.9,72.1,29.99,North,-999,-999.0,-999.0,87,0.00,,,0.35,tws,2013-07-05 20:49:00,
2013-07-05 16:55:00,75.8,72.1,29.99,North,-999,-999.0,-999.0,87,0.00,,,0.35,tws,2013-07-05 20:55:00,
2013-07-05 16:59:00,75.7,71.6,30.00,North,-999,-999.0,-999.0,86,0.00,,,0.35,tws,2013-07-05 20:59:00,
2013-07-05 17:04:00,75.8,71.9,30.00,North,-999,-999.0,-999.0,87,0.00,,,0.35,tws,2013-07-05 21:04:00,
2013-07-05 17:10:00,76.5,72.4,30.00,North,-999,-999.0,-999.0,87,0.00,,,0.35,tws,2013-07-05 21:10:00,
2013-07-05 17:14:00,76.9,73.2,30.00,North,-999,-999.0,-999.0,88,0.00,,,0.35,tws,2013-07-05 21:14:00,
2013-07-05 17:20:00,76.8,73.5,30.00,North,-999,-999.0,-999.0,89,0.00,,,0.35,tws,2013-07-05 21:20:00,
2013-07-05 17:24:00,76.5,73.6,30.00,North,-999,-999.0,-999.0,90,0.00,,,0.35,tws,2013-07-05 21:24:00,
2013-07-05 17:29:00,76.2,73.5,30.00,North,-999,-999.0,-999.0,91,0.00,,,0.35,tws,2013-07-05 21:29:00,
2013-07-05 17:35:00,76.1,73.6,30.00,North,-999,-999.0,-999.0,91,0.12,,,0.36,tws,2013-07-05 21:35:00,
2013-07-05 17:39:00,75.9,72.8,30.00,North,-999,-999.0,-999.0,89,0.00,,,0.36,tws,2013-07-05 21:39:00,
2013-07-05 17:45:00,75.9,72.7,29.99,North,-999,-999.0,-999.0,89,0.00,,,0.36,tws,2013-07-05 21:45:00,
2013-07-05 17:50:00,76.1,72.8,29.99,North,-999,-999.0,-999.0,89,0.00,,,0.36,tws,2013-07-05 21:50:00,
2013-07-05 17:55:00,76.5,72.6,30.00,North,-999,-999.0,-999.0,87,0.00,,,0.36,tws,2013-07-05 21:55:00,
2013-07-05 18:00:00,76.1,72.5,30.02,North,-999,-999.0,-999.0,88,0.00,,,0.36,tws,2013-07-05 22:00:00,
2013-07-05 18:04:00,74.8,71.6,30.02,North,-999,-999.0,-999.0,89,0.00,,,0.36,tws,2013-07-05 22:04:00,
2013-07-05 18:10:00,73.1,70.7,30.02,North,-999,-999.0,-999.0,92,0.00,,,0.36,tws,2013-07-05 22:10:00,
2013-07-05 18:15:00,71.8,69.9,30.02,North,-999,-999.0,-999.0,93,0.00,,,0.36,tws,2013-07-05 22:15:00,
2013-07-05 18:19:00,70.6,69.0,30.02,North,-999,-999.0,-999.0,94,0.00,,,0.36,tws,2013-07-05 22:19:00,
2013-07-05 18:25:00,69.9,68.4,30.02,North,-999,-999.0,-999.0,94,0.00,,,0.36,tws,2013-07-05 22:25:00,
2013-07-05 18:29:00,69.5,68.0,30.02,North,-999,-999.0,-999.0,94,0.00,,,0.36,tws,2013-07-05 22:29:00,
2013-07-05 18:35:00,69.0,67.5,30.02,North,-999,-999.0,-999.0,94,0.12,,,0.37,tws,2013-07-05 22:35:00,
2013-07-05 18:40:00,68.6,67.1,30.02,North,-999,-999.0,-999.0,94,0.00,,,0.37,tws,2013-07-05 22:40:00,
2013-07-05 18:45:00,68.4,66.8,30.02,North,-999,-999.0,-999.0,94,0.00,,,0.37,tws,2013-07-05 22:45:00,
2013-07-05 18:50:00,68.2,66.5,30.02,North,-999,-999.0,-999.0,94,0.00,,,0.37,tws,2013-07-05 22:50:00,
2013-07-05 18:54:00,68.0,66.1,30.01,North,-999,-999.0,-999.0,93,0.00,,,0.37,tws,2013-07-05 22:54:00,
2013-07-05 19:00:00,67.9,65.9,30.01,North,-999,-999.0,-999.0,93,0.00,,,0.37,tws,2013-07-05 23:00:00,
2013-07-05 19:04:00,67.8,65.7,30.02,North,-999,-999.0,-999.0,92,0.00,,,0.37,tws,2013-07-05 23:04:00,
2013-07-05 19:10:00,67.8,65.6,30.02,North,-999,-999.0,-999.0,92,0.00,,,0.37,tws,2013-07-05 23:10:00,
2013-07-05 19:15:00,67.8,65.5,30.02,North,-999,-999.0,-999.0,92,0.00,,,0.37,tws,2013-07-05 23:15:00,
2013-07-05 19:19:00,67.7,65.3,30.01,North,-999,-999.0,-999.0,91,0.00,,,0.37,tws,2013-07-05 23:19:00,
2013-07-05 19:25:00,67.7,65.2,30.01,North,-999,-999.0,-999.0,91,0.00,,,0.37,tws,2013-07-05 23:25:00,
2013-07-05 19:29:00,67.7,65.2,30.02,North,-999,-999.0,-999.0,91,0.00,,,0.37,tws,2013-07-05 23:29:00,
2013-07-05 19:35:00,67.8,65.2,30.02,North,-999,-999.0,-999.0,91,0.00,,,0.37,tws,2013-07-05 23:35:00,
2013-07-05 19:40:00,67.9,65.2,30.02,North,-999,-999.0,-999.0,90,0.00,,,0.37,tws,2013-07-05 23:40:00,
2013-07-05 19:45:00,67.8,65.1,30.02,North,-999,-999.0,-999.0,91,0.00,,,0.37,tws,2013-07-05 23:45:00,
2013-07-05 19:50:00,67.7,65.0,30.02,North,-999,-999.0,-999.0,90,0.00,,,0.37,tws,2013-07-05 23:50:00,
2013-07-05 19:55:00,67.7,65.0,30.02,North,-999,-999.0,-999.0,90,0.00,,,0.37,tws,2013-07-05 23:55:00,
2013-07-05 20:00:00,67.8,64.9,30.02,North,-999,-999.0,-999.0,90,0.00,,,0.37,tws,2013-07-06 00:00:00,
2013-07-05 20:04:00,67.7,64.8,30.02,North,-999,-999.0,-999.0,90,0.12,,,0.38,tws,2013-07-06 00:04:00,
2013-07-05 20:10:00,67.8,64.8,30.02,North,-999,-999.0,-999.0,90,0.00,,,0.38,tws,2013-07-06 00:10:00,
2013-07-05 20:15:00,67.9,64.8,30.02,North,-999,-999.0,-999.0,89,0.00,,,0.38,tws,2013-07-06 00:15:00,
2013-07-05 20:19:00,67.8,64.8,30.02,North,-999,-999.0,-999.0,90,0.00,,,0.38,tws,2013-07-06 00:19:00,
2013-07-05 20:25:00,67.8,64.7,30.02,North,-999,-999.0,-999.0,89,0.00,,,0.38,tws,2013-07-06 00:25:00,
2013-07-05 20:30:00,67.7,64.6,30.02,North,-999,-999.0,-999.0,89,0.00,,,0.38,tws,2013-07-06 00:30:00,
2013-07-05 20:34:00,67.6,64.5,30.02,North,-999,-999.0,-999.0,89,0.00,,,0.38,tws,2013-07-06 00:34:00,
2013-07-05 20:40:00,67.6,64.4,30.02,North,-999,-999.0,-999.0,89,0.00,,,0.38,tws,2013-07-06 00:40:00,
2013-07-05 20:45:00,67.5,64.4,30.02,North,-999,-999.0,-999.0,89,0.00,,,0.38,tws,2013-07-06 00:45:00,
2013-07-05 20:50:00,67.4,64.3,30.02,North,-999,-999.0,-999.0,89,0.00,,,0.38,tws,2013-07-06 00:50:00,
2013-07-05 20:54:00,67.3,64.2,30.02,North,-999,-999.0,-999.0,89,0.00,,,0.38,tws,2013-07-06 00:54:00,
2013-07-05 21:00:00,67.3,64.1,30.02,North,-999,-999.0,-999.0,89,0.00,,,0.38,tws,2013-07-06 01:00:00,
2013-07-05 21:05:00,67.2,64.1,30.02,North,-999,-999.0,-999.0,89,0.00,,,0.38,tws,2013-07-06 01:05:00,
2013-07-05 21:09:00,67.1,64.0,30.02,North,-999,-999.0,-999.0,89,0.00,,,0.38,tws,2013-07-06 01:09:00,
2013-07-05 21:15:00,67.1,63.9,30.02,North,-999,-999.0,-999.0,89,0.00,,,0.38,tws,2013-07-06 01:15:00,
2013-07-05 21:20:00,67.1,63.9,30.02,North,-999,-999.0,-999.0,89,0.00,,,0.38,tws,2013-07-06 01:20:00,
2013-07-05 21:25:00,66.9,63.8,30.02,North,-999,-999.0,-999.0,89,0.00,,,0.38,tws,2013-07-06 01:25:00,
2013-07-05 21:30:00,66.9,63.7,30.02,North,-999,-999.0,-999.0,89,0.00,,,0.38,tws,2013-07-06 01:30:00,
2013-07-05 21:35:00,66.8,63.6,30.02,North,-999,-999.0,-999.0,89,0.00,,,0.38,tws,2013-07-06 01:35:00,
2013-07-05 21:40:00,66.8,63.5,30.02,North,-999,-999.0,-999.0,89,0.12,,,0.39,tws,2013-07-06 01:40:00,
2013-07-05 21:45:00,66.7,63.5,30.02,North,-999,-999.0,-999.0,89,0.00,,,0.39,tws,2013-07-06 01:45:00,
2013-07-05 21:50:00,66.7,63.4,30.02,North,-999,-999.0,-999.0,89,0.00,,,0.39,tws,2013-07-06 01:50:00,
2013-07-05 21:54:00,66.7,63.4,30.02,North,-999,-999.0,-999.0,89,0.00,,,0.39,tws,2013-07-06 01:54:00,
2013-07-05 22:00:00,66.6,63.4,30.03,North,-999,-999.0,-999.0,89,0.00,,,0.39,tws,2013-07-06 02:00:00,
2013-07-05 22:05:00,66.5,63.3,30.03,North,-999,-999.0,-999.0,89,0.00,,,0.39,tws,2013-07-06 02:05:00,
2013-07-05 22:10:00,66.4,63.2,30.03,North,-999,-999.0,-999.0,89,0.00,,,0.39,tws,2013-07-06 02:10:00,
2013-07-05 22:15:00,66.4,63.2,30.03,North,-999,-999.0,-999.0,89,0.00,,,0.39,tws,2013-07-06 02:15:00,
2013-07-05 22:20:00,66.3,63.1,30.03,North,-999,-999.0,-999.0,89,0.00,,,0.39,tws,2013-07-06 02:20:00,
2013-07-05 22:25:00,66.3,63.0,30.03,North,-999,-999.0,-999.0,88,0.00,,,0.39,tws,2013-07-06 02:25:00,
2013-07-05 22:30:00,66.3,63.0,30.03,North,-999,-999.0,-999.0,88,0.00,,,0.39,tws,2013-07-06 02:30:00,
2013-07-05 22:35:00,66.3,63.0,30.03,North,-999,-999.0,-999.0,88,0.00,,,0.39,tws,2013-07-06 02:35:00,
2013-07-05 22:40:00,66.3,63.0,30.03,North,-999,-999.0,-999.0,89,0.00,,,0.39,tws,2013-07-06 02:40:00,
2013-07-05 22:44:00,66.2,62.9,30.03,North,-999,-999.0,-999.0,89,0.00,,,0.39,tws,2013-07-06 02:44:00,
2013-07-05 22:50:00,66.1,62.8,30.03,North,-999,-999.0,-999.0,88,0.00,,,0.39,tws,2013-07-06 02:50:00,
2013-07-05 22:55:00,66.2,62.9,30.03,North,-999,-999.0,-999.0,88,0.00,,,0.39,tws,2013-07-06 02:55:00,
2013-07-05 23:00:00,66.2,62.8,30.03,North,-999,-999.0,-999.0,88,0.00,,,0.39,tws,2013-07-06 03:00:00,
2013-07-05 23:05:00,66.1,62.7,30.03,North,-999,-999.0,-999.0,88,0.00,,,0.39,tws,2013-07-06 03:05:00,
2013-07-05 23:10:00,66.2,62.8,30.03,North,-999,-999.0,-999.0,88,0.00,,,0.39,tws,2013-07-06 03:10:00,
2013-07-05 23:15:00,66.2,62.8,30.03,North,-999,-999.0,-999.0,88,0.00,,,0.39,tws,2013-07-06 03:15:00,
2013-07-05 23:20:00,66.2,62.8,30.02,North,-999,-999.0,-999.0,88,0.00,,,0.39,tws,2013-07-06 03:20:00,
2013-07-05 23:25:00,66.2,62.7,30.02,North,-999,-999.0,-999.0,88,0.00,,,0.39,tws,2013-07-06 03:25:00,
2013-07-05 23:30:00,66.2,62.7,30.02,North,-999,-999.0,-999.0,88,0.00,,,0.39,tws,2013-07-06 03:30:00,
2013-07-05 23:35:00,66.2,62.8,30.02,North,-999,-999.0,-999.0,88,0.00,,,0.39,tws,2013-07-06 03:35:00,
2013-07-05 23:40:00,66.2,62.7,30.02,North,-999,-999.0,-999.0,88,0.00,,,0.39,tws,2013-07-06 03:40:00,
2013-07-05 23:45:00,66.2,62.8,30.02,North,-999,-999.0,-999.0,88,0.00,,,0.39,tws,2013-07-06 03:45:00,
2013-07-05 23:50:00,66.2,62.7,30.02,North,-999,-999.0,-999.0,88,0.00,,,0.39,tws,2013-07-06 03:50:00,
2013-07-05 23:55:00,66.2,62.8,30.02,North,-999,-999.0,-999.0,88,0.12,,,0.40,tws,2013-07-06 03:55:00,